Kosmos-2522

operational
NORAD ID: 42939 Int'l Des: 2017-055 Owner: VVKOV/IACG Country: RU Constellation: GLONASS
MEOCIRCULAR

关于 Kosmos-2522

正在加载描述...

实时位置

正在加载3D地球...

即将过境

高度历史

Altitude vs Time

uPlot chart will show altitude changes over time

两行轨道根数

1 42939U 17055A 26034.38405934 .00000034 00000-0 00000+0 0 9992
2 42939 64.0792 196.4352 0006488 223.3014 136.6164 2.13101651 65129
Epoch: Feb 3, 2026 • Age: 9 hours

当前状态

高度 19143.9 km
速度 3.95 km/s
星下点 -62.75°S, 82.93°E
发射日期 Sep 22, 2017
运行时间 8.3 years
类型 other

技术详情

分类 Payload
质量 1450.00 kg
干质量 1200.00 kg
总质量 1450.00 kg
长度 4.00 m
直径 1.50 m
跨度 7.80 m
形状 Cyl + Ant + 2 Pan
制造商 RESH
平台类型 Uragan
阶段状态 In Orbit
所有者/国家 VVKOV/IACG/RU

大型星座

Loading constellations...